Погода в Усун-Кюёль

Россия / Республика Саха (Якутия)     62°17′09″N   116°51′43″E
темп.,
°C
ветер,
м/с
пор.,
м/с
влажн.,
%
обл.,
%
осадки,
мм/ч
давл.,
гПа
погр.,
м
27 февраля, сб
сб2700:00−27св23100100 0.0 102439
03:00−29св12100100 0.1 102319
06:00−28ссз2298100 0.1 102466
09:00−29сз2398100 0.1 1024116
12:00−26зсз3597100 0.1 1025311
15:00−24сз3694100 0.4 1023496
18:00−23ссз1296100 0.1 102595
21:00−24зсз2797100 0.1 1026277
28 февраля, вс
вс2800:00−28з389791 0.0 1027172
03:00−31з349750 0.0 102878
06:00−33зюз36970 0.0 1029102
09:00−34зюз38960 0.0 1030138
12:00−27з379119 0.0 1031449
15:00−24з478553 0.0 1030826
18:00−26зюз2590100 0.0 1031113
21:00−30зюз239365 0.0 103258
1 марта, пн
пн100:00−33зюз23950 0.0 103319
03:00−34зюз23960 0.0 103320
06:00−35зюз22970 0.0 103319
09:00−35зюз22970 0.0 103327
12:00−28зюз24930 0.0 1031306
15:00−25юз238844 0.0 1030696
18:00−27юз1293100 0.0 102919
21:00−32зюз129589 0.0 102919
2 марта, вт
вт200:00−35з11960 0.0 102919
03:00−36св00996 0.0 102819
06:00−37св1110052 0.0 102819
09:00−37св129935 0.0 102719
12:00−30св239265 0.0 1026292
15:00−27св249383 0.0 1025392
18:00−29ссв249698 0.0 102587
21:00−34ссв339878 0.0 102768
3 марта, ср
ср300:00−36ссв239966 0.0 102752
03:00−37ссв239966 0.0 102745
06:00−38с239966 0.0 102821
09:00−39с239866 0.0 102947
12:00−32ссз239173 0.0 1028330
15:00−29сз239186 0.0 1027483
18:00−31сз2295100 0.0 102734
21:00−35зсз239784 0.0 102819